Location: Newark
(35.6799°N, 139.7636°E)
Time: 21:22:42
(UTC+00:00)

Transit 2A - Pass Details

Date: 07 December 2019
Orbit: 601 x 958 km, 66.7° (Epoch: 26 January)

Event Time Altitude Azimuth Distance (km) Brightness Sun altitude
Rises 07:11:43 0° 339° (NNW) 2,874 8.9 2.0°
Reaches altitude 10° 07:14:00 10° 345° (NNW) 1,988 8.0 1.5°
Maximum altitude 07:18:18 47° 60° (ENE) 855 5.9 0.8°
Drops below altitude 10° 07:22:54 10° 135° (SE) 2,125 8.2 0.0°
Sets 07:25:23 0° 141° (SE) 3,095 9.0 -0.5°
